Quillayute, WA
on Saturday, December 29, 2012

Saturday
Previous Day Next Day
Daily Summary
 ActualAverageRecord
Temperature
Mean Temperature °F 40°F  
Max Temperature 45°F 46°F 54°F (1980)
Min Temperature 35°F 35°F 12°F (1968)
Degree Days
Heating Degree Days 25 25  
Month to date heating degree days 717  
Since 1 July heating degree days 2431  
Cooling Degree Days 0 0  
Month to date cooling degree days 0  
Year to date cooling degree days 19  
Moisture
Dew Point 40°F   
Average Humidity 96    
Maximum Humidity 100    
Minimum Humidity 87    
Precipitation
Precipitation T in 0.40 in 3.09 in (1974)
Month to date precipitation 12.19  
Year to date precipitation 98.74  
Wind
Wind Speed 3 mph   
Max Wind Speed 9 mph   
Max Gust Speed 12 mph   
Visibility 5 miles   
Events Rain   

Key: T is trace of precipitation, MM is missing value
Source: NWS Daily Summary
Time(PST)TemperatureDew PointHumidity Pressure Visibility Wind DirectionWind SpeedGust SpeedPrecipitationEvents Conditions
12:27 AM 42.8°F 39.2°F 87% 30.14 in 7.0 miles Calm Calm - N/A   Overcast
12:53 AM 41.0°F 41.0°F 100% 30.15 in 6.0 miles East 3.5 mph - N/A   Overcast
1:28 AM 41.0°F 39.2°F 93% 30.15 in 2.5 miles ENE 4.6 mph - N/A   Overcast
1:46 AM 41.0°F 39.2°F 93% 30.15 in 3.0 miles East 6.9 mph - N/A   Overcast
1:53 AM 41.0°F 39.9°F 96% 30.15 in 5.0 miles East 5.8 mph - N/A   Overcast
2:53 AM 39.9°F 39.0°F 97% 30.15 in 6.0 miles ENE 4.6 mph - N/A   Mostly Cloudy
3:53 AM 39.2°F 37.4°F 93% 30.15 in 7.0 miles ENE 3.5 mph - N/A   Overcast
4:53 AM 39.9°F 39.0°F 97% 30.16 in 6.0 miles Calm Calm - N/A   Overcast
5:09 AM 39.2°F 39.2°F 100% 30.15 in 7.0 miles Calm Calm - N/A   Overcast
5:53 AM 39.9°F 39.0°F 97% 30.16 in 5.0 miles East 4.6 mph - N/A   Overcast
6:53 AM 39.0°F 39.0°F 100% 30.16 in 7.0 miles East 4.6 mph - N/A   Overcast
7:53 AM 39.9°F 39.0°F 97% 30.17 in 4.0 miles Calm Calm - N/A   Overcast
8:32 AM 39.2°F 39.2°F 100% 30.17 in 5.0 miles Calm Calm - N/A   Overcast
8:53 AM 39.9°F 39.0°F 97% 30.17 in 3.0 miles East 4.6 mph - N/A   Overcast
9:53 AM 41.0°F 39.9°F 96% 30.17 in 5.0 miles ENE 3.5 mph - N/A   Overcast
10:09 AM 41.0°F 41.0°F 100% 30.17 in 6.0 miles Calm Calm - N/A   Overcast
10:50 AM 42.8°F 41.0°F 93% 30.18 in 6.0 miles Calm Calm - N/A   Overcast
10:53 AM 43.0°F 41.0°F 93% 30.18 in 6.0 miles Calm Calm - N/A   Overcast
11:53 AM 43.0°F 42.1°F 97% 30.16 in 5.0 miles East 3.5 mph - N/A   Overcast
12:53 PM 44.1°F 42.1°F 93% 30.14 in 4.0 miles East 3.5 mph - N/A   Overcast
1:53 PM 44.1°F 43.0°F 96% 30.14 in 3.0 miles East 3.5 mph - N/A   Overcast
2:53 PM 44.6°F 42.8°F 93% 30.13 in 4.0 miles Calm Calm - N/A   Overcast
3:53 PM 45.0°F 43.0°F 93% 30.14 in 4.0 miles Calm Calm - N/A   Overcast
4:53 PM 44.1°F 44.1°F 100% 30.14 in 4.0 miles Calm Calm - N/A   Overcast
5:20 PM 44.6°F 42.8°F 93% 30.14 in 5.0 miles Calm Calm - N/A   Overcast
5:45 PM 44.6°F 42.8°F 93% 30.13 in 2.5 miles Calm Calm - 0.00 in Rain Light Rain
5:53 PM 44.1°F 43.0°F 96% 30.14 in 2.5 miles Calm Calm - 0.00 in Rain Light Rain
5:58 PM 44.6°F 42.8°F 93% 30.14 in 3.0 miles Calm Calm - 0.00 in Rain Light Rain
6:13 PM 42.8°F 42.8°F 100% 30.14 in 5.0 miles Calm Calm - 0.00 in   Overcast
6:53 PM 43.0°F 42.1°F 97% 30.15 in 2.0 miles Calm Calm - 0.00 in   Overcast
6:57 PM 42.8°F 41.0°F 93% 30.15 in 1.2 miles North 3.5 mph - N/A   Overcast
7:07 PM 42.8°F 41.0°F 93% 30.15 in 2.5 miles NNE 4.6 mph - N/A   Overcast
7:10 PM 42.8°F 41.0°F 93% 30.15 in 5.0 miles NNE 4.6 mph - N/A   Overcast
7:53 PM 41.0°F 41.0°F 100% 30.16 in 7.0 miles North 4.6 mph - N/A   Mostly Cloudy
8:53 PM 39.9°F 37.9°F 93% 30.17 in 7.0 miles North 4.6 mph - N/A   Clear
9:53 PM 36.0°F 36.0°F 100% 30.18 in 6.0 miles Calm Calm - N/A   Clear
10:53 PM 35.1°F 35.1°F 100% 30.20 in 6.0 miles NE 8.1 mph - N/A   Clear
11:30 PM 37.4°F 35.6°F 93% 30.20 in 6.0 miles ESE 4.6 mph - N/A   Mostly Cloudy
11:53 PM 37.0°F 36.0°F 96% 30.21 in 6.0 miles Calm Calm - N/A   Overcast
Moon Phase
Dec. 29 Jan. 04 Jan. 11 Jan. 18 Jan. 26
Sunrise:08:07 AM (PST) Moon Rise:06:20 PM (PST)
Sunset:04:33 PM (PST) Moon Set:08:37 AM (PST)

Copyright © 2014 The Weather Underground, Inc.